Location: Eymir
(36.7333°N, 29.7833°E)
Time: 18:23:39
(UTC+00:00)

Cosmos 1140 Rocket - Pass Details

Date: 14 January 2026
Orbit: 739 x 763 km, 74.1° (Epoch: 17 February)

Event Time Altitude Azimuth Distance (km) Brightness Sun altitude
Rises 03:52:11 0° 194° (SSW) 3,156 6.7 -15.9°
Reaches altitude 10° 03:54:31 10° 194° (SSW) 2,237 5.9 -15.5°
Maximum altitude 03:59:34 84° 107° (ESE) 748 3.5 -14.5°
Drops below altitude 10° 04:04:41 10° 19° (NNE) 2,258 6.0 -13.5°
Sets 04:07:03 0° 19° (NNE) 3,188 6.7 -13.1°
